Greenville, AL

4:37 AM CST on February 23, 2017 (GMT -0600)
Greenville Municipal

Weather History for KPRN - May, 2012

Change the Weather History Date:

Friday, May 4, 2012

  Actual Average Record
Temperature  
Mean Temperature 75 °F -  
Max Temperature 84 °F 79 °F 94 °F (1955)
Min Temperature 66 °F 55 °F 38 °F (1971)
Cooling Degree Days 10    
Growing Degree Days 25 (Base 50)    
Moisture  
Dew Point 68 °F    
Average Humidity 84    
Maximum Humidity 100    
Minimum Humidity 56    
Precipitation  
Precipitation 0.00 in - - ()
Sea Level Pressure  
Sea Level Pressure 30.04 in    
Wind  
Wind Speed 1 mph (SSE)    
Max Wind Speed 6 mph    
Max Gust Speed -    
Visibility 9 miles    
Events Fog , Rain , Hail    
Averages and records for this station are not official NWS values.
T = Trace of Precipitation, MM = Missing Value Source: NWS Daily Summary

Daily Weather History Graph

Daily Weather History Graph

Search for Another Location

Airport or City:

Trip Planner

Search our weather history database for the weather conditions in past years. The results will help you decide how hot, cold, wet, or windy it might be!

Date:

Astronomy

May. 04, 2012 Rise Set
Actual Time 5:57 AM CDT 7:29 PM CDT
Civil Twilight 5:31 AM CDT 7:55 PM CDT
Nautical Twilight 5:00 AM CDT 8:26 PM CDT
Astronomical Twilight 4:27 AM CDT 8:59 PM CDT
Moon 6:09 PM CDT (5/4) 4:33 AM CDT (5/4)
Length of Visible Light 14h 23m
Length of Day
13h 31m
Waxing Gibbous, 97% of the Moon is Illuminated
May 4
Waxing Gibbous
May 5
Full
May 12
Last Quarter
May 20
New
May 28
First Quarter

Hourly Weather History & Observations

Time (CDT) Temp. Heat Index Dew Point Humidity Pressure Visibility Wind Dir Wind Speed Gust Speed Precip Events Conditions
12:56 AM 66.9 °F - 66.0 °F 97% 30.05 in 0.2 mi Calm Calm - N/A Fog Fog
1:30 AM 66.0 °F - 66.0 °F 100% 30.05 in 1.2 mi Calm Calm - N/A   Overcast
1:43 AM 66.0 °F - 66.0 °F 100% 30.05 in 3.0 mi Calm Calm - N/A   Mostly Cloudy
1:56 AM 66.0 °F - 66.0 °F 100% 30.03 in 9.0 mi ESE 3.5 mph - N/A   Partly Cloudy
2:56 AM 66.9 °F - 66.0 °F 97% 30.02 in 10.0 mi ESE 4.6 mph - N/A   Clear
3:56 AM 66.0 °F - 66.0 °F 100% 30.03 in 10.0 mi Calm Calm - N/A   Clear
4:56 AM 66.0 °F - 64.9 °F 96% 30.03 in 10.0 mi Calm Calm - N/A   Clear
5:30 AM - - - N/A% - - North - - N/A Hail Hail
5:56 AM 66.0 °F - 64.9 °F 96% 30.04 in 10.0 mi Calm Calm - N/A   Clear
6:15 AM - - - N/A% - - North - - N/A Hail Hail
6:45 AM - - - N/A% - - North - - N/A Hail Hail
6:56 AM 66.9 °F - 66.0 °F 97% 30.08 in 9.0 mi SSE 3.5 mph - N/A   Scattered Clouds
7:06 AM 66.9 °F - 66.0 °F 97% 30.09 in 10.0 mi SE 3.5 mph - N/A   Mostly Cloudy
7:30 AM - - - N/A% - - North - - N/A Hail Hail
7:45 AM - - - N/A% - - North - - N/A Hail Hail
7:56 AM 69.1 °F - 66.9 °F 93% 30.08 in 9.0 mi SSE 3.5 mph - N/A   Mostly Cloudy
8:05 AM 69.1 °F - 68.0 °F 96% 30.09 in 9.0 mi Calm Calm - N/A   Mostly Cloudy
8:13 AM 70.0 °F - 68.0 °F 93% 30.09 in 9.0 mi Calm Calm - N/A   Overcast
8:56 AM 72.0 °F - 69.1 °F 91% 30.08 in 10.0 mi SE 3.5 mph - N/A   Mostly Cloudy
9:17 AM 73.0 °F - 68.0 °F 84% 30.10 in 10.0 mi South 3.5 mph - N/A   Mostly Cloudy
9:30 AM - - - N/A% - - North - - N/A Hail Hail
9:39 AM 73.9 °F - 68.0 °F 82% 30.10 in 10.0 mi South 3.5 mph - N/A   Mostly Cloudy
9:56 AM 73.9 °F - 68.0 °F 82% 30.09 in 10.0 mi Calm Calm - N/A   Overcast
10:45 AM - - - N/A% - - North - - N/A Hail Hail
10:56 AM 79.0 °F - 68.0 °F 69% 30.09 in 10.0 mi ESE 5.8 mph - 0.00 in Rain Light Rain
11:56 AM 79.0 °F - 69.1 °F 72% 30.06 in 10.0 mi Calm Calm - 0.00 in   Mostly Cloudy
12:08 PM 79.0 °F - 69.1 °F 72% 30.07 in 10.0 mi Calm Calm - N/A   Mostly Cloudy
12:56 PM 80.1 °F 82.7 °F 68.0 °F 67% 30.06 in 10.0 mi Calm Calm - 0.00 in   Mostly Cloudy
1:56 PM 81.0 °F 83.8 °F 68.0 °F 65% 30.05 in 10.0 mi South 4.6 mph - 0.00 in   Partly Cloudy
2:56 PM 82.9 °F 85.4 °F 66.9 °F 58% 30.04 in 10.0 mi Calm Calm - N/A   Clear
3:56 PM 82.9 °F 85.4 °F 66.9 °F 58% 30.01 in 10.0 mi Calm Calm - N/A   Partly Cloudy
4:56 PM 84.9 °F 88.2 °F 68.0 °F 57% 29.99 in 10.0 mi Calm Calm - N/A   Partly Cloudy
5:56 PM 84.0 °F 86.5 °F 66.9 °F 56% 29.98 in 10.0 mi SSE 3.5 mph - N/A   Clear
6:56 PM 82.0 °F 84.9 °F 68.0 °F 62% 29.98 in 10.0 mi Calm Calm - N/A   Clear
7:56 PM 75.9 °F - 70.0 °F 82% 29.99 in 10.0 mi Calm Calm - N/A   Clear
8:56 PM 75.0 °F - 70.0 °F 84% 29.99 in 10.0 mi Calm Calm - N/A   Clear
9:56 PM 73.9 °F - 70.0 °F 87% 30.00 in 10.0 mi Calm Calm - N/A   Partly Cloudy
10:56 PM 73.0 °F - 70.0 °F 90% 30.00 in 10.0 mi Calm Calm - N/A   Clear
11:56 PM 71.1 °F - 69.1 °F 93% 29.98 in 10.0 mi South 3.5 mph - N/A   Clear